Location: Trois-Rivi�res
(46.3500°N, 72.5500°W)
Time: 21:39:44
(UTC-05:00)

N. Korean satellite - Pass Details

Date: 14 October 2017
Orbit: 461 x 513 km, 97.2° (Epoch: 16 December)

Event Time Altitude Azimuth Distance (km) Brightness Sun altitude
Rises 19:26:06 0° 191° (S) 2,543 10.3 -14.8°
Reaches altitude 10° 19:28:22 10° 203° (SSW) 1,658 9.5 -15.2°
Maximum altitude 19:31:30 28° 264° (W) 920 8.8 -15.7°
Drops below altitude 10° 19:34:36 10° 325° (NW) 1,647 9.8 -16.2°
Sets 19:36:51 0° 338° (NNW) 2,522 10.6 -16.6°
